Location: Olmeneta
(45.2333°N, 10.0167°E)
Time: 13:45:02
(UTC+00:00)

Helios 1A Rocket - Pass Details

Date: 03 March 2021
Orbit: 563 x 585 km, 98.3° (Epoch: 11 April)

Event Time Altitude Azimuth Distance (km) Brightness Sun altitude
Rises 17:38:13 0° 140° (SE) 2,769 6.0 -5.8°
Reaches altitude 10° 17:40:31 10° 130° (SE) 1,872 5.1 -6.2°
Maximum altitude 17:44:06 31° 68° (ENE) 1,010 3.7 -6.8°
Drops below altitude 10° 17:47:41 10° 6° (N) 1,875 5.5 -7.4°
Sets 17:49:59 0° 356° (N) 2,774 6.4 -7.8°
